TimePST,TemperatureF,Dew PointF,Humidity,Sea Level PressureIn,VisibilityMPH,Wind Direction,Wind SpeedMPH,Gust SpeedMPH,PrecipitationIn,Events,Conditions,WindDirDegrees,DateUTC
12:55 AM,25.0,21.9,88,30.36,5.0,Calm,Calm,-,N/A,,Clear,0,2013-02-02 08:55:00
1:55 AM,25.0,21.9,88,30.37,9.0,Calm,Calm,-,N/A,,Clear,0,2013-02-02 09:55:00
2:55 AM,24.1,21.9,91,30.37,10.0,Calm,Calm,-,N/A,,Clear,0,2013-02-02 10:55:00
3:55 AM,23.0,19.9,88,30.37,10.0,Calm,Calm,-,N/A,,Clear,0,2013-02-02 11:55:00
4:55 AM,23.0,21.0,92,30.38,10.0,Calm,Calm,-,N/A,,Clear,0,2013-02-02 12:55:00
5:55 AM,23.0,19.9,88,30.39,10.0,Calm,Calm,-,N/A,,Clear,0,2013-02-02 13:55:00
6:55 AM,21.0,19.0,92,30.41,10.0,Calm,Calm,-,N/A,,Clear,0,2013-02-02 14:55:00
7:55 AM,21.9,19.9,92,30.42,10.0,Calm,Calm,-,N/A,,Clear,0,2013-02-02 15:55:00
8:55 AM,30.9,26.1,82,30.41,10.0,Calm,Calm,-,N/A,,Clear,0,2013-02-02 16:55:00
9:55 AM,36.0,28.0,73,30.40,10.0,Calm,Calm,-,N/A,,Clear,0,2013-02-02 17:55:00
11:55 AM,45.0,30.0,56,30.36,10.0,ENE,8.1,-,N/A,,Clear,60,2013-02-02 19:55:00
12:55 PM,48.0,28.9,48,30.33,10.0,Calm,Calm,-,N/A,,Clear,0,2013-02-02 20:55:00
1:55 PM,50.0,32.0,50,30.30,10.0,Calm,Calm,-,N/A,,Clear,0,2013-02-02 21:55:00
2:55 PM,48.9,34.0,56,30.31,10.0,Calm,Calm,-,N/A,,Clear,0,2013-02-02 22:55:00
3:55 PM,46.9,35.1,63,30.32,10.0,South,3.5,-,N/A,,Clear,180,2013-02-02 23:55:00
4:55 PM,42.1,30.9,65,30.32,10.0,East,8.1,-,N/A,,Clear,80,2013-02-03 00:55:00
5:55 PM,39.9,30.0,68,30.34,10.0,ENE,6.9,-,N/A,,Clear,70,2013-02-03 01:55:00
6:55 PM,37.9,30.0,73,30.35,10.0,Calm,Calm,-,N/A,,Clear,0,2013-02-03 02:55:00
7:55 PM,32.0,28.9,88,30.37,8.0,Calm,Calm,-,N/A,,Clear,0,2013-02-03 03:55:00
8:55 PM,33.1,28.9,85,30.33,9.0,ENE,3.5,-,N/A,,Clear,70,2013-02-03 04:55:00
9:55 PM,30.9,28.0,89,30.32,7.0,Calm,Calm,-,N/A,,Clear,0,2013-02-03 05:55:00
10:55 PM,30.0,28.0,92,30.31,5.0,Calm,Calm,-,N/A,,Clear,0,2013-02-03 06:55:00
11:18 PM,30.2,28.4,93,30.28,2.5,Calm,Calm,-,N/A,,Partly Cloudy,0,2013-02-03 07:18:00
11:27 PM,30.2,28.4,93,30.27,4.0,Calm,Calm,-,N/A,,Scattered Clouds,0,2013-02-03 07:27:00
11:55 PM,30.9,28.0,89,30.29,4.0,East,3.5,-,N/A,,Partly Cloudy,100,2013-02-03 07:55:00